Time,TemperatureF,DewpointF,PressureIn,WindDirection,WindDirectionDegrees,WindSpeedMPH,WindSpeedGustMPH,Humidity,HourlyPrecipIn,Conditions,Clouds,dailyrainin,SoftwareType,DateUTC
2012-06-03 07:03:00,44.1,35.0,29.80,South,180,0.0,0.0,70,0.00,,---,0.00,VWS V14.01,2012-06-03 13:03:00,
2012-06-03 07:08:00,44.2,35.4,29.83,South,173,0.0,0.0,71,0.00,,---,0.00,VWS V14.01,2012-06-03 13:08:00,
2012-06-03 07:13:00,44.4,35.6,29.83,South,173,0.0,0.0,71,0.00,,---,0.00,VWS V14.01,2012-06-03 13:13:00,
2012-06-03 07:18:00,44.5,35.3,29.83,South,174,0.0,0.0,70,0.00,,---,0.00,VWS V14.01,2012-06-03 13:18:00,
2012-06-03 07:23:00,44.5,35.0,29.84,South,173,0.0,0.0,69,0.00,,---,0.00,VWS V14.01,2012-06-03 13:23:00,
2012-06-03 07:28:00,44.4,34.9,29.84,South,174,0.0,0.0,69,0.00,,---,0.00,VWS V14.01,2012-06-03 13:28:00,
2012-06-03 07:33:00,44.8,35.3,29.84,South,174,0.0,0.0,69,0.00,,---,0.00,VWS V14.01,2012-06-03 13:33:00,
2012-06-03 07:38:00,45.6,36.0,29.82,South,174,0.0,0.0,69,0.00,,---,0.00,VWS V14.01,2012-06-03 13:38:00,
2012-06-03 07:43:00,46.7,37.1,29.82,South,173,0.0,0.0,69,0.00,,---,0.00,VWS V14.01,2012-06-03 13:43:00,
2012-06-03 07:48:00,48.3,37.9,29.80,South,174,0.0,0.0,67,0.00,,---,0.00,VWS V14.01,2012-06-03 13:48:00,
2012-06-03 07:53:00,49.7,38.4,29.78,South,174,0.0,0.0,65,0.00,,---,0.00,VWS V14.01,2012-06-03 13:53:00,
2012-06-03 07:58:00,50.8,38.7,29.78,South,173,0.0,0.0,63,0.00,,---,0.00,VWS V14.01,2012-06-03 13:58:00,
2012-06-03 08:03:00,51.7,39.1,29.79,South,174,0.0,0.0,62,0.00,,---,0.00,VWS V14.01,2012-06-03 14:03:00,
2012-06-03 08:08:00,52.9,39.8,29.79,South,174,0.0,0.0,61,0.00,,---,0.00,VWS V14.01,2012-06-03 14:08:00,
2012-06-03 08:13:00,55.0,40.5,29.77,South,174,0.0,0.0,58,0.00,,---,0.00,VWS V14.01,2012-06-03 14:13:00,
2012-06-03 08:18:00,56.5,40.5,29.76,South,173,0.0,0.0,55,0.00,,---,0.00,VWS V14.01,2012-06-03 14:18:00,
2012-06-03 08:23:00,57.6,40.6,29.74,South,174,1.0,2.0,53,0.00,,---,0.00,VWS V14.01,2012-06-03 14:23:00,
2012-06-03 08:28:00,58.2,40.2,29.74,South,174,1.0,3.0,51,0.00,,---,0.00,VWS V14.01,2012-06-03 14:28:00,
2012-06-03 08:33:00,59.0,40.4,29.74,South,173,0.0,2.0,50,0.00,,---,0.00,VWS V14.01,2012-06-03 14:33:00,
2012-06-03 08:38:00,59.5,41.4,29.73,South,174,0.0,1.0,51,0.00,,---,0.00,VWS V14.01,2012-06-03 14:38:00,
2012-06-03 08:43:00,60.4,41.7,29.72,South,174,0.0,0.0,50,0.00,,---,0.00,VWS V14.01,2012-06-03 14:43:00,
2012-06-03 08:48:00,62.0,39.3,29.71,South,173,0.0,0.0,43,0.00,,---,0.00,VWS V14.01,2012-06-03 14:48:00,
2012-06-03 08:53:00,64.0,39.2,29.70,South,173,0.0,2.0,40,0.00,,---,0.00,VWS V14.01,2012-06-03 14:53:00,
2012-06-03 08:58:00,65.5,39.2,29.70,South,169,0.0,3.0,38,0.00,,---,0.00,VWS V14.01,2012-06-03 14:58:00,
2012-06-03 09:03:00,66.7,39.6,29.70,South,169,0.0,0.0,37,0.00,,---,0.00,VWS V14.01,2012-06-03 15:03:00,
2012-06-03 09:08:00,67.6,39.0,29.69,South,169,0.0,0.0,35,0.00,,---,0.00,VWS V14.01,2012-06-03 15:08:00,
2012-06-03 09:13:00,68.4,39.0,29.69,South,170,0.0,1.0,34,0.00,,---,0.00,VWS V14.01,2012-06-03 15:13:00,
2012-06-03 09:18:00,69.1,38.0,29.69,South,169,0.0,3.0,32,0.00,,---,0.00,VWS V14.01,2012-06-03 15:18:00,
2012-06-03 09:23:00,69.9,38.7,29.67,South,170,1.0,2.0,32,0.00,,---,0.00,VWS V14.01,2012-06-03 15:23:00,
2012-06-03 09:28:00,70.2,38.2,29.67,South,170,0.0,1.0,31,0.00,,---,0.00,VWS V14.01,2012-06-03 15:28:00,
2012-06-03 09:33:00,70.5,38.4,29.67,SSE,155,1.0,5.0,31,0.00,,---,0.00,VWS V14.01,2012-06-03 15:33:00,
2012-06-03 09:38:00,70.7,38.6,29.67,SSE,155,0.0,1.0,31,0.00,,---,0.00,VWS V14.01,2012-06-03 15:38:00,
2012-06-03 09:44:00,70.1,38.1,29.67,SSE,155,0.0,4.0,31,0.00,,---,0.00,VWS V14.01,2012-06-03 15:44:00,
2012-06-03 09:49:00,69.5,38.4,29.67,SSE,155,0.0,2.0,32,0.00,,---,0.00,VWS V14.01,2012-06-03 15:49:00,
2012-06-03 09:54:00,70.3,38.3,29.67,SSE,155,0.0,1.0,31,0.00,,---,0.00,VWS V14.01,2012-06-03 15:54:00,
2012-06-03 09:59:00,70.6,37.7,29.67,SE,145,4.0,6.0,30,0.00,,---,0.00,VWS V14.01,2012-06-03 15:59:00,
2012-06-03 10:04:00,71.6,37.7,29.68,SE,145,0.0,1.0,29,0.00,,---,0.00,VWS V14.01,2012-06-03 16:04:00,
2012-06-03 10:09:00,72.8,40.4,29.67,SE,145,2.0,4.0,31,0.00,,---,0.00,VWS V14.01,2012-06-03 16:09:00,
2012-06-03 10:14:00,72.5,39.3,29.67,SE,145,0.0,1.0,30,0.00,,---,0.00,VWS V14.01,2012-06-03 16:14:00,
2012-06-03 10:19:00,72.5,41.0,29.67,SSE,150,1.0,7.0,32,0.00,,---,0.00,VWS V14.01,2012-06-03 16:19:00,
2012-06-03 10:24:00,72.2,39.9,29.68,SSE,150,0.0,4.0,31,0.00,,---,0.00,VWS V14.01,2012-06-03 16:24:00,
2012-06-03 10:29:00,73.6,39.4,29.67,SSE,150,1.0,1.0,29,0.00,,---,0.00,VWS V14.01,2012-06-03 16:29:00,
2012-06-03 10:34:00,73.8,40.5,29.67,SSE,168,2.0,7.0,30,0.00,,---,0.00,VWS V14.01,2012-06-03 16:34:00,
2012-06-03 10:39:00,73.5,40.2,29.67,South,190,6.0,9.0,30,0.00,,---,0.00,VWS V14.01,2012-06-03 16:39:00,
2012-06-03 10:44:00,73.4,39.2,29.67,South,190,2.0,4.0,29,0.00,,---,0.00,VWS V14.01,2012-06-03 16:44:00,
2012-06-03 10:49:00,73.7,38.6,29.67,South,190,0.0,3.0,28,0.00,,---,0.00,VWS V14.01,2012-06-03 16:49:00,
2012-06-03 10:54:00,74.2,39.0,29.67,South,190,1.0,4.0,28,0.00,,---,0.00,VWS V14.01,2012-06-03 16:54:00,
2012-06-03 10:59:00,74.9,36.7,29.65,South,189,1.0,4.0,25,0.00,,---,0.00,VWS V14.01,2012-06-03 16:59:00,
2012-06-03 11:04:00,75.8,34.3,29.69,ESE,109,5.0,9.0,22,0.00,,---,0.00,VWS V14.01,2012-06-03 17:04:00,
2012-06-03 11:09:00,76.4,34.8,29.69,ESE,105,2.0,9.0,22,0.00,,---,0.00,VWS V14.01,2012-06-03 17:09:00,
2012-06-03 11:14:00,76.4,34.8,29.69,ESE,105,2.0,3.0,22,0.00,,---,0.00,VWS V14.01,2012-06-03 17:14:00,
2012-06-03 11:19:00,76.9,35.2,29.67,East,98,4.0,7.0,22,0.00,,---,0.00,VWS V14.01,2012-06-03 17:19:00,
2012-06-03 11:24:00,76.4,35.9,29.68,NNE,14,7.0,7.0,23,0.00,,---,0.00,VWS V14.01,2012-06-03 17:24:00,
2012-06-03 11:29:00,75.5,34.0,29.69,North,9,6.0,11.0,22,0.00,,---,0.00,VWS V14.01,2012-06-03 17:29:00,
2012-06-03 11:34:00,75.8,35.4,29.69,NNE,22,6.0,10.0,23,0.00,,---,0.00,VWS V14.01,2012-06-03 17:34:00,
2012-06-03 11:39:00,75.8,35.4,29.69,NE,34,1.0,8.0,23,0.00,,---,0.00,VWS V14.01,2012-06-03 17:39:00,
2012-06-03 11:44:00,75.8,35.4,29.69,NE,34,0.0,5.0,23,0.00,,---,0.00,VWS V14.01,2012-06-03 17:44:00,
2012-06-03 11:49:00,75.8,35.4,29.69,NE,34,5.0,5.0,23,0.00,,---,0.00,VWS V14.01,2012-06-03 17:49:00,
2012-06-03 11:54:00,76.3,35.8,29.68,NE,34,0.0,0.0,23,0.00,,---,0.00,VWS V14.01,2012-06-03 17:54:00,
2012-06-03 11:59:00,78.4,37.6,29.66,NNE,33,0.0,1.0,23,0.00,,---,0.00,VWS V14.01,2012-06-03 17:59:00,
2012-06-03 12:04:00,79.5,37.4,29.66,NE,34,2.0,2.0,22,0.00,,---,0.00,VWS V14.01,2012-06-03 18:04:00,
2012-06-03 12:09:00,78.7,36.7,29.66,NNE,29,0.0,11.0,22,0.00,,---,0.00,VWS V14.01,2012-06-03 18:09:00,
2012-06-03 12:14:00,78.2,35.1,29.66,NNE,29,0.0,1.0,21,0.00,,---,0.00,VWS V14.01,2012-06-03 18:14:00,
2012-06-03 12:19:00,78.4,37.6,29.65,NNE,29,4.0,6.0,23,0.00,,---,0.00,VWS V14.01,2012-06-03 18:19:00,
2012-06-03 12:24:00,77.9,36.0,29.65,NNE,29,4.0,5.0,22,0.00,,---,0.00,VWS V14.01,2012-06-03 18:24:00,
2012-06-03 12:29:00,78.3,35.2,29.66,NNE,29,0.0,4.0,21,0.00,,---,0.00,VWS V14.01,2012-06-03 18:29:00,
2012-06-03 12:34:00,78.5,35.4,29.66,NNE,29,0.0,4.0,21,0.00,,---,0.00,VWS V14.01,2012-06-03 18:34:00,
2012-06-03 12:39:00,79.0,37.0,29.65,NNE,29,0.0,9.0,22,0.00,,---,0.00,VWS V14.01,2012-06-03 18:39:00,
2012-06-03 12:44:00,77.8,38.2,29.65,NNW,342,5.0,10.0,24,0.00,,---,0.00,VWS V14.01,2012-06-03 18:44:00,
2012-06-03 12:49:00,77.7,38.1,29.65,NNW,342,5.0,7.0,24,0.00,,---,0.00,VWS V14.01,2012-06-03 18:49:00,
2012-06-03 12:54:00,77.4,36.7,29.66,NNW,340,2.0,6.0,23,0.00,,---,0.00,VWS V14.01,2012-06-03 18:54:00,
2012-06-03 12:59:00,77.5,37.9,29.66,NNW,327,2.0,5.0,24,0.00,,---,0.00,VWS V14.01,2012-06-03 18:59:00,
2012-06-03 13:04:00,78.4,36.5,29.64,NW,325,4.0,9.0,22,0.00,,---,0.00,VWS V14.01,2012-06-03 19:04:00,
2012-06-03 13:09:00,77.6,34.6,29.65,WNW,297,4.0,10.0,21,0.00,,---,0.00,VWS V14.01,2012-06-03 19:09:00,
2012-06-03 13:14:00,76.8,37.3,29.65,WNW,295,5.0,10.0,24,0.00,,---,0.00,VWS V14.01,2012-06-03 19:14:00,
2012-06-03 13:19:00,77.5,36.8,29.64,WNW,290,7.0,9.0,23,0.00,,---,0.00,VWS V14.01,2012-06-03 19:19:00,
2012-06-03 13:24:00,78.0,36.1,29.64,West,279,8.0,11.0,22,0.00,,---,0.00,VWS V14.01,2012-06-03 19:24:00,
2012-06-03 13:29:00,77.5,35.7,29.64,West,277,3.0,9.0,22,0.00,,---,0.00,VWS V14.01,2012-06-03 19:29:00,
2012-06-03 13:34:00,77.3,35.5,29.64,West,274,6.0,9.0,22,0.00,,---,0.00,VWS V14.01,2012-06-03 19:34:00,
2012-06-03 13:39:00,78.2,35.1,29.64,West,273,8.0,11.0,21,0.00,,---,0.00,VWS V14.01,2012-06-03 19:39:00,
2012-06-03 13:45:00,78.0,36.1,29.64,West,273,7.0,8.0,22,0.00,,---,0.00,VWS V14.01,2012-06-03 19:45:00,
2012-06-03 13:50:00,78.4,36.5,29.63,West,273,5.0,11.0,22,0.00,,---,0.00,VWS V14.01,2012-06-03 19:50:00,
2012-06-03 13:55:00,78.5,36.5,29.61,West,272,7.0,12.0,22,0.00,,---,0.00,VWS V14.01,2012-06-03 19:55:00,
2012-06-03 14:00:00,78.7,35.5,29.61,West,273,6.0,12.0,21,0.00,,---,0.00,VWS V14.01,2012-06-03 20:00:00,
2012-06-03 14:05:00,78.7,36.7,29.66,West,270,9.0,12.0,22,0.00,,---,0.00,VWS V14.01,2012-06-03 20:05:00,
2012-06-03 14:10:00,78.7,37.8,29.66,West,270,7.0,7.0,23,0.00,,---,0.00,VWS V14.01,2012-06-03 20:10:00,
2012-06-03 14:15:00,79.1,35.8,29.66,West,270,3.0,9.0,21,0.00,,---,0.00,VWS V14.01,2012-06-03 20:15:00,
2012-06-03 14:20:00,79.1,35.8,29.66,West,270,3.0,9.0,21,0.00,,---,0.00,VWS V14.01,2012-06-03 20:20:00,
2012-06-03 14:25:00,78.5,35.4,29.66,West,270,0.0,2.0,21,0.00,,---,0.00,VWS V14.01,2012-06-03 20:25:00,
2012-06-03 14:30:00,78.4,36.5,29.66,West,270,0.0,2.0,22,0.00,,---,0.00,VWS V14.01,2012-06-03 20:30:00,
2012-06-03 14:35:00,78.6,35.4,29.66,West,270,1.0,1.0,21,0.00,,---,0.00,VWS V14.01,2012-06-03 20:35:00,
2012-06-03 14:40:00,78.1,35.0,29.66,West,270,1.0,2.0,21,0.00,,---,0.00,VWS V14.01,2012-06-03 20:40:00,
2012-06-03 14:45:00,77.4,34.5,29.68,West,269,3.0,6.0,21,0.00,,---,0.00,VWS V14.01,2012-06-03 20:45:00,
2012-06-03 14:50:00,76.7,35.0,29.68,West,270,0.0,4.0,22,0.00,,---,0.00,VWS V14.01,2012-06-03 20:50:00,
2012-06-03 14:55:00,76.4,34.8,29.69,West,270,1.0,6.0,22,0.00,,---,0.00,VWS V14.01,2012-06-03 20:55:00,
2012-06-03 15:00:00,76.1,35.7,29.70,West,270,0.0,7.0,23,0.00,,---,0.00,VWS V14.01,2012-06-03 21:00:00,
2012-06-03 15:05:00,73.9,35.9,29.73,NE,55,8.0,16.0,25,0.00,,---,0.00,VWS V14.01,2012-06-03 21:05:00,
2012-06-03 15:10:00,72.7,34.9,29.75,North,355,1.0,18.0,25,0.00,,---,0.00,VWS V14.01,2012-06-03 21:10:00,
2012-06-03 16:10:00,63.9,39.1,29.92,West,270,8.0,15.0,40,0.00,,---,0.00,VWS V14.01,2012-06-03 22:10:00,
2012-06-03 16:21:00,62.9,41.8,29.91,SSW,197,0.0,8.0,46,0.00,,---,0.00,VWS V14.01,2012-06-03 22:21:00,
2012-06-03 16:26:00,62.6,42.7,29.89,South,184,1.0,6.0,48,0.00,,---,0.00,VWS V14.01,2012-06-03 22:26:00,
2012-06-03 16:32:00,62.7,41.1,29.89,SE,132,0.0,4.0,45,0.00,,---,0.00,VWS V14.01,2012-06-03 22:32:00,
2012-06-03 16:37:00,62.7,40.5,29.88,South,173,8.0,14.0,44,0.00,,---,0.00,VWS V14.01,2012-06-03 22:37:00,
2012-06-03 16:42:00,62.3,41.8,29.86,South,184,4.0,14.0,47,0.00,,---,0.00,VWS V14.01,2012-06-03 22:42:00,
2012-06-03 16:47:00,61.6,41.7,29.86,SSW,199,4.0,15.0,48,0.00,,---,0.00,VWS V14.01,2012-06-03 22:47:00,
2012-06-03 16:52:00,60.8,41.5,29.88,SSE,154,1.0,20.0,49,0.00,,---,0.00,VWS V14.01,2012-06-03 22:52:00,
2012-06-03 16:57:00,61.0,41.2,29.87,SSE,164,12.0,14.0,48,0.00,,---,0.00,VWS V14.01,2012-06-03 22:57:00,
2012-06-03 17:02:00,61.0,41.2,29.86,SW,217,15.0,19.0,48,0.00,,---,0.00,VWS V14.01,2012-06-03 23:02:00,
2012-06-03 17:07:00,61.3,39.8,29.89,SSE,148,11.0,16.0,45,0.00,,---,0.00,VWS V14.01,2012-06-03 23:07:00,
2012-06-03 17:12:00,61.8,40.3,29.90,South,191,16.0,19.0,45,0.00,,---,0.00,VWS V14.01,2012-06-03 23:12:00,
2012-06-03 17:17:00,61.2,40.3,29.90,SSW,200,11.0,24.0,46,0.00,,---,0.00,VWS V14.01,2012-06-03 23:17:00,
2012-06-03 17:22:00,61.1,39.6,29.90,SSW,197,14.0,27.0,45,0.00,,---,0.00,VWS V14.01,2012-06-03 23:22:00,
2012-06-03 17:27:00,62.0,39.9,29.89,SSW,206,11.0,21.0,44,0.00,,---,0.00,VWS V14.01,2012-06-03 23:27:00,
2012-06-03 17:32:00,62.3,39.5,29.89,South,182,16.0,24.0,43,0.00,,---,0.00,VWS V14.01,2012-06-03 23:32:00,
2012-06-03 17:37:00,62.3,39.5,29.89,SSW,205,18.0,25.0,43,0.00,,---,0.00,VWS V14.01,2012-06-03 23:37:00,
2012-06-03 17:42:00,62.0,40.4,29.89,SSW,198,21.0,26.0,45,0.00,,---,0.00,VWS V14.01,2012-06-03 23:42:00,
2012-06-03 17:47:00,62.0,40.4,29.90,South,188,3.0,22.0,45,0.00,,---,0.00,VWS V14.01,2012-06-03 23:47:00,
2012-06-03 17:52:00,61.9,40.3,29.90,South,188,11.0,16.0,45,0.00,,---,0.00,VWS V14.01,2012-06-03 23:52:00,
2012-06-03 17:57:00,62.2,40.0,29.90,SSW,203,12.0,18.0,44,0.00,,---,0.00,VWS V14.01,2012-06-03 23:57:00,
2012-06-03 18:02:00,62.5,40.3,29.89,SE,125,1.0,9.0,44,0.00,,---,0.00,VWS V14.01,2012-06-04 00:02:00,
2012-06-03 18:07:00,62.9,40.7,29.87,SE,141,0.0,5.0,44,0.00,,---,0.00,VWS V14.01,2012-06-04 00:07:00,
2012-06-03 18:12:00,63.1,39.0,29.87,South,184,0.0,8.0,41,0.00,,---,0.00,VWS V14.01,2012-06-04 00:12:00,
2012-06-03 18:17:00,63.6,38.9,29.86,SE,146,0.0,8.0,40,0.00,,---,0.00,VWS V14.01,2012-06-04 00:17:00,
2012-06-03 18:22:00,63.6,41.9,29.85,ESE,122,1.0,8.0,45,0.00,,---,0.00,VWS V14.01,2012-06-04 00:22:00,
2012-06-03 18:27:00,62.6,42.1,29.87,ESE,121,3.0,7.0,47,0.00,,---,0.00,VWS V14.01,2012-06-04 00:27:00,
2012-06-03 18:32:00,62.0,41.6,29.87,SE,142,0.0,1.0,47,0.00,,---,0.00,VWS V14.01,2012-06-04 00:32:00,
2012-06-03 18:37:00,61.7,40.7,29.87,SE,138,0.0,1.0,46,0.00,,---,0.00,VWS V14.01,2012-06-04 00:37:00,
2012-06-03 18:42:00,61.8,40.8,29.88,ESE,120,6.0,6.0,46,0.00,,---,0.00,VWS V14.01,2012-06-04 00:42:00,
2012-06-03 18:47:00,62.0,40.4,29.88,ESE,102,2.0,7.0,45,0.00,,---,0.00,VWS V14.01,2012-06-04 00:47:00,
2012-06-03 18:52:00,62.0,40.4,29.89,ESE,113,7.0,7.0,45,0.00,,---,0.00,VWS V14.01,2012-06-04 00:52:00,
2012-06-03 18:57:00,62.3,40.7,29.89,SE,138,2.0,2.0,45,0.00,,---,0.00,VWS V14.01,2012-06-04 00:57:00,
2012-06-03 19:02:00,62.5,40.9,29.89,SE,139,0.0,1.0,45,0.00,,---,0.00,VWS V14.01,2012-06-04 01:02:00,
2012-06-03 19:07:00,62.7,40.5,29.83,SE,126,0.0,1.0,44,0.00,,---,0.00,VWS V14.01,2012-06-04 01:07:00,
2012-06-03 19:12:00,62.9,42.4,29.84,SW,229,0.0,0.0,47,0.00,,---,0.00,VWS V14.01,2012-06-04 01:12:00,
2012-06-03 19:17:00,62.6,42.7,29.85,WSW,238,6.0,9.0,48,0.00,,---,0.00,VWS V14.01,2012-06-04 01:17:00,
2012-06-03 19:22:00,62.3,40.7,29.86,WSW,243,4.0,4.0,45,0.00,,---,0.00,VWS V14.01,2012-06-04 01:22:00,
2012-06-03 19:27:00,62.5,40.9,29.84,SSW,213,5.0,6.0,45,0.00,,---,0.00,VWS V14.01,2012-06-04 01:27:00,
2012-06-03 19:32:00,62.6,41.0,29.84,SSW,213,0.0,0.0,45,0.00,,---,0.00,VWS V14.01,2012-06-04 01:32:00,
2012-06-03 19:37:00,62.7,40.5,29.84,SSW,213,0.0,0.0,44,0.00,,---,0.00,VWS V14.01,2012-06-04 01:37:00,
2012-06-03 19:42:00,62.8,41.2,29.84,SSW,213,0.0,0.0,45,0.00,,---,0.00,VWS V14.01,2012-06-04 01:42:00,
2012-06-03 19:47:00,62.7,41.1,29.84,SSW,213,0.0,0.0,45,0.00,,---,0.00,VWS V14.01,2012-06-04 01:47:00,
2012-06-03 19:52:00,62.5,40.9,29.84,SSW,213,0.0,0.0,45,0.00,,---,0.00,VWS V14.01,2012-06-04 01:52:00,
2012-06-03 19:57:00,62.3,41.3,29.85,SSW,211,1.0,1.0,46,0.00,,---,0.00,VWS V14.01,2012-06-04 01:57:00,
2012-06-03 20:02:00,61.8,41.4,29.85,SSW,211,0.0,1.0,47,0.00,,---,0.00,VWS V14.01,2012-06-04 02:02:00,
2012-06-03 20:07:00,61.5,41.7,29.73,SSW,212,0.0,0.0,48,0.00,,---,0.00,VWS V14.01,2012-06-04 02:07:00,
2012-06-03 20:12:00,61.2,41.9,29.75,SSW,212,0.0,4.0,49,0.00,,---,0.00,VWS V14.01,2012-06-04 02:12:00,
2012-06-03 20:17:00,60.6,42.4,29.75,SSW,200,0.0,2.0,51,0.00,,---,0.00,VWS V14.01,2012-06-04 02:17:00,
2012-06-03 20:22:00,60.2,42.0,29.75,South,187,3.0,6.0,51,0.00,,---,0.00,VWS V14.01,2012-06-04 02:22:00,
2012-06-03 20:27:00,59.9,42.2,29.75,South,188,4.0,6.0,52,0.00,,---,0.00,VWS V14.01,2012-06-04 02:27:00,
2012-06-03 20:32:00,59.6,42.0,29.75,South,188,0.0,1.0,52,0.00,,---,0.00,VWS V14.01,2012-06-04 02:32:00,